Probability
30 23 16 13 13 14 14 11 8 7 8 9 9 7 6 6 6 6 6 5 4 3 3 3 3 3 3 2 1 0 0 0 0 0 0 0 0 0 0 0 0 0 0
32 26 18 15 15 16 15 11 9 8 8 8 7 5 5 5 6 6 6 5 4 3 3 3 3 3 3 2 1 0 0 0 0 0 0 0 0 0 0 0 0 0 0
34 29 23 20 20 19 16 13 11 9 7 6 4 3 3 4 4 5 6 5 3 3 3 3 3 2 1 1 0 0 0 0 0 0 0 0 0 0 0 0 0 0 0
35 30 27 24 22 20 19 16 12 9 6 4 3 3 3 3 3 4 4 3 2 1 2 2 2 1 0 0 0 0 0 0 0 0 0 0 0 0 0 0 0 0 0
37 33 30 28 25 24 23 19 14 10 6 4 3 3 3 3 3 3 3 2 1 0 1 1 1 0 0 0 0 0 0 0 0 0 0 0 0 0 0 0 0 0 0
45 41 38 36 33 31 28 24 18 11 7 4 3 3 3 3 3 3 3 3 1 0 0 0 0 0 0 0 0 0 0 0 0 0 0 0 0 0 0 0 0 0 0
54 51 48 46 42 38 32 26 21 15 8 5 3 3 3 3 3 3 3 3 2 2 2 1 0 0 0 0 0 0 0 0 0 0 0 0 0 0 0 0 0 0 0
59 58 56 54 49 44 37 29 23 19 13 7 4 3 3 3 3 2 3 3 3 3 3 2 1 0 0 0 0 0 0 0 0 0 0 0 0 0 0 0 0 0 0
61 60 60 58 55 50 42 31 24 20 16 10 5 2 3 3 2 1 1 2 2 2 2 2 1 0 0 0 0 0 0 0 0 0 0 0 0 0 0 0 0 0 0
57 58 58 57 55 49 41 33 25 20 16 11 5 3 4 4 3 1 0 1 1 1 1 1 0 0 0 0 0 0 0 0 0 0 0 0 0 0 0 0 0 0 0
52 54 54 53 50 44 38 33 28 24 20 14 9 6 6 7 5 3 1 0 0 1 1 0 0 0 0 0 0 0 0 0 0 0 0 0 0 0 0 0 0 0 0
50 50 51 50 46 40 36 34 32 30 27 22 15 10 9 9 8 5 2 0 1 2 2 1 0 0 0 0 0 0 0 0 0 0 0 0 0 0 0 0 0 0 0
45 45 45 45 42 39 37 34 32 32 32 27 21 15 12 12 10 6 3 1 1 2 2 1 0 0 0 0 0 0 0 0 0 0 0 0 0 0 0 0 0 0 0
38 37 36 37 38 38 37 33 31 31 30 26 22 19 16 14 12 8 5 1 0 1 1 1 0 0 0 0 0 0 0 0 0 0 0 0 0 0 0 0 0 0 0
32 29 28 30 33 35 33 29 26 24 21 18 16 15 15 13 11 8 4 1 0 0 0 0 0 0 0 0 0 0 0 0 0 0 0 0 0 0 0 0 0 0 0
26 24 23 25 27 28 27 22 17 13 10 8 7 7 8 8 7 4 2 0 0 0 0 0 0 0 0 0 0 0 0 0 0 0 0 0 0 0 0 0 0 0 0
21 19 17 19 21 22 20 16 11 7 4 2 2 2 2 2 2 1 0 0 0 0 0 0 0 0 0 0 0 0 0 0 0 0 0 0 0 0 0 0 0 0 0
15 13 12 13 14 15 14 12 8 5 3 3 2 1 0 0 0 0 0 0 0 0 0 0 0 0 0 0 0 0 0 0 0 0 0 0 0 0 0 0 0 0 0
9 8 8 9 9 9 8 8 6 5 3 3 2 1 0 0 0 0 0 0 0 0 0 0 0 0 0 0 0 0 0 0 0 0 0 0 0 0 0 0 0 0 0
6 5 5 6 7 6 6 6 5 4 3 2 1 0 0 0 0 0 0 0 0 1 0 0 0 0 0 0 0 0 0 0 0 0 0 0 0 0 0 0 0 0 0
3 3 4 5 5 4 4 4 4 3 2 1 0 0 0 0 0 0 0 0 0 0 0 0 0 0 0 0 0 0 0 0 0 0 0 0 0 0 0 0 0 0 0
2 3 3 4 4 3 3 3 2 2 1 0 0 0 0 0 0 0 0 0 0 0 0 0 0 0 0 0 0 0 0 0 0 0 0 0 0 0 0 0 0 0 0
1 2 3 3 2 2 2 1 1 1 0 0 0 0 0 0 0 0 0 0 0 0 0 0 0 0 0 0 0 0 0 0 0 0 0 0 0 0 0 0 0 0 0
1 2 2 1 1 1 1 0 0 0 0 0 0 0 0 0 0 0 0 0 0 0 0 0 0 0 0 0 0 0 0 0 0 0 0 0 0 0 0 0 0 0 0
1 1 1 0 0 0 0 0 0 0 0 0 0 0 0 0 0 0 0 0 0 0 0 0 0 0 0 0 0 0 0 0 0 0 0 0 0 0 0 0 0 0 0
0 1 0 0 0 0 0 0 0 0 0 0 0 0 0 0 0 0 0 0 0 0 0 0 0 0 0 0 0 0 0 0 0 0 0 0 0 0 0 0 0 0 0
Wind_Speed
8 7 6 6 5 5 5 5 4 4 3 3 4 3 3 2 2 2 2 2 1 1 1 1 1 1 1 1 1 2 2 2 2 1 0 0 1 2 2 3 3 2 3
8 7 6 6 6 5 5 5 5 4 4 4 3 3 3 2 2 3 2 2 2 1 1 1 1 1 1 1 1 1 1 2 3 2 1 1 1 2 3 3 2 2 2
8 7 6 6 6 6 5 5 4 4 4 4 3 3 3 3 3 3 3 2 2 2 2 2 1 1 1 0 1 1 1 1 2 3 2 1 1 2 2 2 3 2 2
8 8 8 7 7 6 5 5 5 5 4 4 3 3 3 3 3 3 2 2 2 1 1 2 1 2 2 1 2 2 2 2 2 3 2 1 1 1 2 2 1 1 1
9 9 8 7 6 6 5 5 4 4 5 4 3 3 2 2 2 3 2 3 2 2 1 1 1 2 2 2 2 3 3 3 3 3 2 2 1 2 2 2 2 2 1
9 9 7 7 7 6 6 5 4 4 4 4 4 3 3 2 3 4 3 3 2 2 1 1 1 2 2 3 4 4 5 5 4 3 2 3 3 2 2 3 3 2 1
8 8 7 8 7 6 6 5 5 4 3 3 3 4 3 2 3 4 4 3 3 2 2 1 1 1 2 2 3 3 2 3 5 5 4 4 4 4 4 4 3 3 2
8 8 7 8 7 6 6 6 5 4 4 3 3 3 3 2 3 3 3 2 2 2 2 3 3 2 2 3 3 2 2 1 2 2 3 3 4 4 5 5 4 3 2
6 6 7 8 8 7 7 6 5 4 4 3 4 4 3 2 2 3 3 2 2 2 1 2 3 2 2 4 3 2 2 0 1 2 2 2 4 6 6 4 4 3 1
5 5 6 7 8 8 7 6 4 4 4 4 4 4 4 3 3 4 4 2 3 2 1 1 1 2 3 4 3 3 3 1 1 1 2 1 2 4 6 5 5 4 2
4 4 4 5 6 7 5 4 4 4 4 4 4 3 3 3 4 5 5 3 3 3 2 1 1 3 3 4 3 3 4 3 2 1 1 1 1 1 2 2 3 4 3
3 4 4 5 5 5 6 5 5 5 5 4 4 3 1 2 3 4 6 5 5 3 3 2 2 3 3 3 3 3 4 3 2 1 1 1 1 2 2 3 3 3 3
3 2 3 3 4 5 6 6 5 5 4 4 4 3 2 1 2 4 5 6 6 4 3 4 4 3 2 1 2 3 3 2 2 2 2 2 2 2 2 1 1 1 1
3 2 3 3 3 3 3 4 4 5 5 4 5 4 3 3 2 2 2 2 4 3 2 2 3 2 1 1 1 1 1 2 3 3 2 2 1 1 2 2 2 1 1
3 2 2 3 3 3 3 2 3 3 5 5 4 4 5 4 5 7 5 4 4 4 4 2 1 1 1 0 0 1 1 1 1 1 2 1 1 1 2 2 2 2 2
2 2 1 2 2 3 4 2 2 1 2 4 5 4 3 5 6 7 7 6 6 7 5 2 2 2 2 2 2 1 1 2 2 2 2 2 2 2 2 2 2 3 3
2 2 1 1 2 3 4 4 3 1 3 2 0 3 4 5 5 6 6 6 5 6 3 2 2 2 2 2 2 2 2 2 2 2 2 2 2 2 2 2 2 3 3
2 1 2 1 2 3 4 4 4 4 2 1 2 2 4 4 5 5 6 6 3 2 2 2 2 2 2 2 2 2 1 1 1 1 2 2 2 2 2 2 3 3 3
1 1 1 1 1 2 3 3 3 3 3 2 2 2 3 4 4 4 5 3 3 2 2 2 2 2 2 2 2 2 1 1 1 1 2 2 2 2 3 3 3 4 4
1 1 1 1 1 2 2 3 3 3 3 3 2 2 2 3 2 2 1 1 2 2 2 2 1 1 1 1 1 1 1 1 1 1 2 2 2 2 3 4 3 3 4
0 1 3 2 2 2 2 3 3 3 3 2 2 2 4 3 3 3 2 1 1 1 1 1 1 1 0 0 0 0 1 1 1 1 1 2 2 2 2 3 3 3 3
2 2 2 2 2 2 2 3 3 3 3 3 2 2 4 3 3 2 2 1 1 1 1 1 1 0 0 0 1 1 1 1 1 1 1 1 1 2 2 2 2 2 2
2 3 2 2 3 3 3 3 3 3 3 2 3 3 2 2 2 2 1 1 1 1 1 2 2 1 1 1 1 1 1 1 2 2 2 2 2 2 2 2 2 2 2
2 3 3 2 2 2 3 3 2 3 3 3 2 2 2 2 2 2 1 1 2 2 2 2 2 2 2 1 1 1 1 1 2 2 2 2 2 2 2 2 2 3 3
3 3 3 3 3 3 3 3 3 3 3 3 3 3 2 2 2 2 2 2 2 2 2 2 2 2 2 2 1 1 2 2 2 2 2 2 2 3 3 3 3 3 3
3 4 3 3 3 3 3 4 4 4 4 4 3 3 3 3 3 3 3 3 3 3 3 2 3 3 3 2 3 3 3 3 3 3 2 1 2 2 3 3 4 3 4
Wind_Direction
182 183 182 185 185 182 186 186 191 194 197 193 187 186 188 188 181 165 174 156 170 214 221 183 233 223 193 190 165 163 168 157 170 207 184 145 108 112 88 80 77 73 81
183 181 184 184 181 183 190 194 188 188 190 190 183 183 189 173 159 154 166 153 163 195 226 184 237 217 185 162 157 168 166 158 154 170 162 137 110 128 118 105 89 82 80
178 180 182 181 182 188 191 189 184 183 186 184 175 176 180 171 159 159 163 165 180 193 192 185 199 159 186 195 155 151 147 139 132 148 158 130 106 124 110 96 93 73 86
177 179 183 186 186 186 183 182 181 178 177 179 171 166 166 155 150 157 158 164 170 173 174 171 174 174 188 183 153 141 133 123 122 133 139 126 113 120 123 131 114 74 82
177 183 189 186 181 177 177 177 172 168 169 166 156 154 152 147 157 162 173 173 173 168 153 159 168 151 152 156 155 151 141 138 139 141 147 140 147 156 172 164 146 118 59
180 187 183 175 174 174 172 167 163 163 161 155 160 160 160 169 165 160 162 170 176 163 145 126 122 103 115 119 124 132 147 156 165 163 170 173 186 181 162 159 148 136 175
180 183 179 175 174 173 171 162 166 166 157 155 163 159 167 180 170 163 164 166 165 163 158 159 147 116 121 122 117 110 113 140 161 168 175 187 183 185 169 165 169 165 179
175 177 178 176 175 169 164 167 171 166 162 163 168 167 162 176 172 163 153 151 144 145 153 165 161 158 149 142 127 110 101 98 157 166 179 190 184 179 177 172 165 138 97
177 181 181 176 170 168 171 176 173 161 159 155 155 153 147 155 167 164 151 134 126 113 103 126 155 168 173 148 139 138 126 81 74 104 135 156 160 158 155 137 138 137 156
185 185 179 174 169 168 172 171 164 157 159 155 152 154 155 161 169 163 154 131 132 131 82 80 144 170 167 152 151 154 163 195 128 86 70 78 132 151 158 164 165 160 154
173 169 163 165 167 162 160 161 158 155 152 155 153 153 158 167 174 171 166 154 161 162 168 189 220 176 156 154 156 167 181 166 141 127 108 94 108 140 173 178 173 168 171
143 151 156 159 164 159 157 161 158 157 157 163 159 162 180 186 184 183 176 176 170 165 186 195 199 181 163 152 158 168 157 139 124 120 128 180 202 212 214 206 199 200 194
123 147 155 159 162 160 161 162 158 160 167 175 174 183 193 188 206 197 181 182 180 169 176 174 173 167 158 162 177 166 153 143 150 170 202 225 230 220 196 199 219 214 236
139 149 143 142 144 143 148 157 164 171 176 180 189 192 186 183 198 200 188 171 161 157 147 153 153 144 118 124 149 171 171 178 180 200 216 230 227 188 189 186 189 189 201
120 122 137 154 154 151 147 155 175 190 194 186 192 191 186 196 209 194 179 178 177 170 139 111 103 111 129 162 239 250 226 181 198 210 205 212 220 226 223 197 185 183 200
118 135 154 168 169 162 152 123 57 147 168 185 190 188 193 190 179 175 177 173 164 152 137 151 176 186 194 201 207 226 230 224 219 207 206 211 214 220 230 218 198 202 219
136 148 130 152 168 172 167 161 158 61 54 46 165 182 178 166 158 163 163 156 148 144 140 171 189 203 210 205 205 215 230 236 221 201 205 214 217 220 219 221 215 218 230
111 127 145 156 180 181 177 174 168 164 153 48 36 96 138 147 150 155 147 126 121 155 180 187 193 200 208 207 204 213 231 242 220 216 220 224 219 218 222 229 229 226 230
135 160 158 157 178 176 167 154 145 143 136 129 98 69 93 105 104 120 135 138 164 182 193 195 196 202 205 202 205 206 210 226 233 222 235 239 233 225 232 234 233 237 231
93 150 144 150 137 142 140 130 128 129 130 134 134 139 127 108 105 113 137 163 165 168 170 181 192 183 174 184 193 203 225 241 247 238 249 248 241 230 237 239 234 234 233
107 128 123 124 123 118 117 126 128 129 134 134 135 144 149 140 140 138 143 160 170 172 173 167 164 161 170 169 173 187 219 255 269 265 263 264 256 250 249 245 246 245 247
145 146 143 137 125 115 115 118 119 123 128 124 109 97 118 116 120 123 133 147 158 166 152 141 136 124 161 171 166 158 181 258 283 282 276 274 274 270 264 259 257 255 255
130 130 122 116 116 115 110 110 115 119 121 125 128 123 124 126 129 130 133 136 123 118 103 100 104 81 45 42 55 109 142 256 275 275 275 282 285 274 265 261 260 261 258
123 124 121 119 114 114 116 115 117 121 122 120 119 119 123 130 127 119 117 109 101 100 106 106 107 100 76 54 37 32 342 297 283 262 253 254 264 268 265 267 266 262 263
103 101 101 103 108 113 114 111 109 111 112 111 109 107 104 101 97 92 83 79 86 85 83 87 88 82 73 60 29 3 339 340 333 314 276 257 262 267 269 271 272 274 265
96 95 95 93 92 98 103 104 103 102 101 99 97 96 95 91 87 84 78 74 77 77 73 74 78 75 55 38 18 4 352 345 341 336 322 295 287 287 290 281 279 278 278